Weather History for Big Bear City, CA

Change the Weather History Date:

Wednesday, July 17, 2013

  Actual Average (KBUO) Record (KBUO)
Temperature  
Mean Temperature 58 °F -  
Max Temperature 78 °F 90 °F 104 °F (1998)
Min Temperature 37 °F 59 °F 53 °F (2000)
Degree Days  
Heating Degree Days 8    
Growing Degree Days 8 (Base 50)    
Moisture  
Dew Point 19 °F    
Average Humidity 26    
Maximum Humidity 57    
Minimum Humidity 6    
Precipitation  
Precipitation 0.00 in - - ()
Sea Level Pressure  
Sea Level Pressure 30.32 in    
Wind  
Wind Speed 2 mph (NNW)    
Max Wind Speed 14 mph    
Max Gust Speed 18 mph    
Visibility 10 miles    
Events      
Averages and records for this station are not official NWS values.
T = Trace of Precipitation, MM = Missing Value Source: NWS Daily Summary

Daily Weather History Graph

Daily Weather History Graph

Search for Another Location

Airport:

Trip Planner

Search our weather history database for the weather conditions in past years. The results will help you decide how hot, cold, wet, or windy it might be!

Date:

Astronomy

Jul. 17, 2013 Rise Set
Actual Time 5:48 AM PDT 7:58 PM PDT
Civil Twilight 5:19 AM PDT 8:27 PM PDT
Nautical Twilight 4:44 AM PDT 9:01 PM PDT
Astronomical Twilight 4:07 AM PDT 9:39 PM PDT
Moon 2:56 PM PDT (7/17) 12:53 AM PDT (7/17)
Length of Visible Light 15h 07m
Length of Day
14h 10m
Waxing Gibbous, 68% of the Moon is Illuminated
Jul 17
Waxing Gibbous
Jul 22
Full
Jul 29
Last Quarter
Aug 6
New
Aug 14
First Quarter

Hourly Weather History & Observations

Time (PDT) Temp. Dew Point Humidity Pressure Visibility Wind Dir Wind Speed Gust Speed Precip Events Conditions
12:15 AM 46.4 °F 30.2 °F 53% 30.28 in 10.0 mi Calm Calm - N/A   Clear
12:35 AM 46.4 °F 30.2 °F 53% 30.28 in 10.0 mi Calm Calm - N/A   Clear
12:55 AM 44.6 °F 30.2 °F 57% 30.29 in 10.0 mi Calm Calm - N/A   Clear
1:15 AM 44.6 °F 30.2 °F 57% 30.28 in 10.0 mi Calm Calm - N/A   Clear
1:35 AM 44.6 °F 28.4 °F 53% 30.29 in 10.0 mi Calm Calm - N/A   Clear
1:55 AM 42.8 °F 28.4 °F 57% 30.28 in 10.0 mi Calm Calm - N/A   Clear
2:15 AM 42.8 °F 26.6 °F 53% 30.29 in 10.0 mi Calm Calm - N/A   Clear
2:35 AM 42.8 °F 24.8 °F 49% 30.28 in 10.0 mi Calm Calm - N/A   Clear
2:55 AM 42.8 °F 23.0 °F 46% 30.28 in 10.0 mi Calm Calm - N/A   Clear
3:15 AM 41.0 °F 21.2 °F 45% 30.28 in 10.0 mi Calm Calm - N/A   Clear
3:35 AM 41.0 °F 19.4 °F 42% 30.28 in 10.0 mi Calm Calm - N/A   Clear
3:55 AM 41.0 °F 19.4 °F 42% 30.28 in 10.0 mi Calm Calm - N/A   Clear
4:15 AM 41.0 °F 17.6 °F 39% 30.28 in 10.0 mi Calm Calm - N/A   Clear
4:35 AM 39.2 °F 17.6 °F 42% 30.28 in 10.0 mi Calm Calm - N/A   Clear
4:55 AM 37.4 °F 15.8 °F 41% 30.28 in 10.0 mi Calm Calm - N/A   Clear
5:15 AM 37.4 °F 14.0 °F 38% 30.28 in 10.0 mi Calm Calm - N/A   Clear
5:35 AM 37.4 °F 17.6 °F 45% 30.29 in 10.0 mi Calm Calm - N/A   Clear
5:55 AM 37.4 °F 14.0 °F 38% 30.30 in 10.0 mi Calm Calm - N/A   Clear
6:15 AM 37.4 °F 17.6 °F 45% 30.30 in 10.0 mi Calm Calm - N/A   Clear
6:35 AM 39.2 °F 14.0 °F 36% 30.31 in 10.0 mi Calm Calm - N/A   Clear
6:55 AM 41.0 °F 15.8 °F 36% 30.31 in 10.0 mi Calm Calm - N/A   Clear
7:15 AM 44.6 °F 21.2 °F 39% 30.32 in 10.0 mi Calm Calm - N/A   Clear
7:35 AM 50.0 °F 28.4 °F 43% 30.32 in 10.0 mi Calm Calm - N/A   Clear
7:55 AM 53.6 °F 26.6 °F 35% 30.32 in 10.0 mi Calm Calm - N/A   Clear
8:15 AM 57.2 °F 21.2 °F 25% 30.33 in 10.0 mi Calm Calm - N/A   Clear
8:35 AM 60.8 °F 17.6 °F 19% 30.33 in 10.0 mi Calm Calm - N/A   Clear
8:55 AM 64.4 °F 17.6 °F 16% 30.33 in 10.0 mi Calm Calm - N/A   Clear
9:15 AM 68.0 °F 10.4 °F 11% 30.33 in 10.0 mi West 3.5 mph - N/A   Clear
9:35 AM 69.8 °F 5.0 °F 8% 30.33 in 10.0 mi West 5.8 mph - N/A   Clear
9:55 AM 71.6 °F 1.4 °F 6% 30.33 in 10.0 mi West 5.8 mph - N/A   Clear
10:15 AM 71.6 °F 3.2 °F 7% 30.34 in 10.0 mi WNW 3.5 mph - N/A   Clear
10:35 AM 73.4 °F 8.6 °F 8% 30.33 in 10.0 mi East 4.6 mph - N/A   Clear
10:55 AM 73.4 °F 8.6 °F 8% 30.34 in 10.0 mi ENE 9.2 mph - N/A   Clear
11:15 AM 73.4 °F 10.4 °F 9% 30.34 in 10.0 mi East 10.4 mph - N/A   Clear
11:35 AM 73.4 °F 12.2 °F 10% 30.34 in 10.0 mi ENE 10.4 mph - N/A   Clear
11:55 AM 73.4 °F 12.2 °F 10% 30.34 in 10.0 mi ENE 8.1 mph - N/A   Clear
12:15 PM 77.0 °F 12.2 °F 9% 30.35 in 10.0 mi East 11.5 mph 16.1 mph N/A   Clear
12:35 PM 75.2 °F 12.2 °F 9% 30.35 in 10.0 mi East 9.2 mph - N/A   Clear
12:55 PM 75.2 °F 12.2 °F 9% 30.35 in 10.0 mi ENE 8.1 mph 18.4 mph N/A   Clear
1:15 PM 77.0 °F 12.2 °F 9% 30.35 in 10.0 mi NE 9.2 mph 16.1 mph N/A   Clear
1:35 PM 77.0 °F 12.2 °F 9% 30.34 in 10.0 mi NE 10.4 mph 17.3 mph N/A   Clear
1:55 PM 77.0 °F 12.2 °F 9% 30.35 in 10.0 mi ENE 8.1 mph - N/A   Clear
2:15 PM 77.0 °F 12.2 °F 9% 30.34 in 10.0 mi NE 10.4 mph 17.3 mph N/A   Clear
2:35 PM 77.0 °F 12.2 °F 9% 30.34 in 10.0 mi NE 13.8 mph - N/A   Clear
2:55 PM 78.8 °F 12.2 °F 8% 30.34 in 10.0 mi NE 9.2 mph - N/A   Clear
3:15 PM 77.0 °F 12.2 °F 9% 30.34 in 10.0 mi NE 3.5 mph - N/A   Clear
3:35 PM 78.8 °F 14.0 °F 9% 30.33 in 10.0 mi East 3.5 mph - N/A   Clear
3:55 PM 77.0 °F 12.2 °F 9% 30.33 in 10.0 mi North 5.8 mph - N/A   Clear
4:15 PM 77.0 °F 26.6 °F 16% 30.33 in 10.0 mi West 9.2 mph - N/A   Clear
4:35 PM 77.0 °F 28.4 °F 17% 30.33 in 10.0 mi West 12.7 mph - N/A   Clear
4:55 PM 77.0 °F 26.6 °F 16% 30.32 in 10.0 mi West 11.5 mph - N/A   Clear
5:15 PM 75.2 °F 24.8 °F 15% 30.31 in 10.0 mi West 11.5 mph - N/A   Clear
5:35 PM 75.2 °F 26.6 °F 17% 30.31 in 10.0 mi West 9.2 mph - N/A   Clear
5:55 PM 73.4 °F 28.4 °F 19% 30.31 in 10.0 mi WSW 10.4 mph - N/A   Clear
6:15 PM 73.4 °F 28.4 °F 19% 30.31 in 10.0 mi West 8.1 mph - N/A   Clear
6:35 PM 73.4 °F 28.4 °F 19% 30.32 in 10.0 mi West 9.2 mph - N/A   Clear
6:55 PM 71.6 °F 26.6 °F 19% 30.32 in 10.0 mi West 9.2 mph - N/A   Clear
7:15 PM 69.8 °F 26.6 °F 20% 30.33 in 10.0 mi West 6.9 mph - N/A   Clear
7:35 PM 69.8 °F 24.8 °F 18% 30.33 in 10.0 mi West 8.1 mph - N/A   Clear
7:55 PM 68.0 °F 21.2 °F 17% 30.33 in 10.0 mi West 3.5 mph - N/A   Clear
8:15 PM 68.0 °F 19.4 °F 16% 30.34 in 10.0 mi Calm Calm - N/A   Clear
8:35 PM 64.4 °F 21.2 °F 19% 30.34 in 10.0 mi Calm Calm - N/A   Clear
8:55 PM 62.6 °F 23.0 °F 22% 30.34 in 10.0 mi Calm Calm - N/A   Clear
9:15 PM 60.8 °F 24.8 °F 25% 30.35 in 10.0 mi Calm Calm - N/A   Clear
9:35 PM 59.0 °F 26.6 °F 29% 30.35 in 10.0 mi Calm Calm - N/A   Clear
9:55 PM 55.4 °F 24.8 °F 31% 30.35 in 10.0 mi Calm Calm - N/A   Clear
10:15 PM 55.4 °F 23.0 °F 29% 30.35 in 10.0 mi Calm Calm - N/A   Clear
10:35 PM 53.6 °F 21.2 °F 28% 30.35 in 10.0 mi Calm Calm - N/A   Clear
10:55 PM 53.6 °F 19.4 °F 26% 30.35 in 10.0 mi Calm Calm - N/A   Clear
11:15 PM 51.8 °F 19.4 °F 28% 30.35 in 10.0 mi Calm Calm - N/A   Clear
11:35 PM 51.8 °F 19.4 °F 28% 30.35 in 10.0 mi Calm Calm - N/A   Clear
11:55 PM 50.0 °F 17.6 °F 28% 30.35 in 10.0 mi Calm Calm - N/A   Clear